Weather in Huangshi

China     30°13′23″N   115°02′59″E
temp.,
°C
wind,
m/s
gust,
m/s
humid.,
%
clouds,
%
prec.,
mm/h
press.,
hPa
HPBL,
m
23 january, sat
sat2323:00+11w1284100 1.4 1019309
02:00+10w238781 1.4 1019163
05:00+9wnw33890 0.0 1019137
08:00+8w22860 0.0 102092
11:00+12nnw11690 0.0 1021487
14:00+13ne21570 0.0 1019762
17:00+14e225612 0.0 1019406
20:00+12se597143 0.0 1020431
24 january, sun
sun2423:00+11se6117628 0.0 1020483
02:00+9sse368414 0.0 1020288
05:00+9se59860 0.0 1018372
08:00+9ese59866 0.0 1020392
11:00+11se698185 0.0 1021532
14:00+13se687582 0.0 1018690
17:00+14se697369 0.0 1017662
20:00+13ese377573 0.0 1018310
25 january, mon
mon2523:00+12e237797 0.1 1019132
02:00+12se238498 1.0 1018141
05:00+11ene239197 1.0 1018184
08:00+11ne119598 4.6 1019106
11:00+11wsw1195100 3.6 1020137
14:00+9nnw6994100 8.1 1020395
17:00+8nnw81288100 2.4 1021474
20:00+8nnw71087100 3.4 1024449
26 january, tue
tue2623:00+7nw4688100 0.8 1025387
02:00+7nw5886100 0.8 1025475
05:00+6wnw248394 0.0 1024250
08:00+6wsw228461 0.0 1026100
11:00+9n127555 0.0 1026483
14:00+11ese227472 0.0 1023504
17:00+11se237397 0.0 1023553
20:00+10se367996 0.0 1023365
27 january, wed
wed2723:00+9sse3581100 0.0 1023357
02:00+9se2382100 0.2 1022225
05:00+9ese3683100 0.3 1020424
08:00+9s1285100 0.5 1021242
11:00+9e1190100 2.3 1022228
14:00+9nne2290100 3.4 1021311
17:00+9n1290100 0.6 1021250
20:00+9n1192100 1.1 1023174